Weather History for OTBD - February, 2013

Change the Weather History Date:

Friday, February 22, 2013

  Actual Average Record
Temperature  
Mean Temperature 73 °F -  
Max Temperature 83 °F 78 °F 89 °F (1997)
Min Temperature 63 °F 61 °F 53 °F (2000)
Cooling Degree Days 8    
Growing Degree Days 23 (Base 50)    
Moisture  
Dew Point 45 °F    
Average Humidity 41    
Maximum Humidity 79    
Minimum Humidity 22    
Precipitation  
Precipitation 0.00 in 0.02 in - ()
Sea Level Pressure  
Sea Level Pressure 30.06 in    
Wind  
Wind Speed 8 mph ()    
Max Wind Speed 16 mph    
Max Gust Speed -    
Visibility 7.2 miles    
Events      
Averages and records for this station are not official NWS values.
T = Trace of Precipitation, MM = Missing Value Source: Averaged Metar Reports

Daily Weather History Graph

Daily Weather History Graph

Search for Another Location

Airport or City:

Trip Planner

Search our weather history database for the weather conditions in past years. The results will help you decide how hot, cold, wet, or windy it might be!

Date:

Astronomy

Feb. 22, 2013 Rise Set
Actual Time 6:02 AM AST 5:31 PM AST
Civil Twilight 5:39 AM AST 5:55 PM AST
Nautical Twilight 5:13 AM AST 6:21 PM AST
Astronomical Twilight 4:46 AM AST 6:48 PM AST
Moon 2:33 PM AST (2/22) 3:18 AM AST (2/22)
Length of Visible Light 12h 15m
Length of Day
11h 28m
Waxing Gibbous, 88% of the Moon is Illuminated
Feb 22
Waxing Gibbous
Feb 25
Full
Mar 5
Last Quarter
Mar 11
New
Mar 19
First Quarter

Hourly Weather History & Observations

Time (AST) Temp. Dew Point Humidity Pressure Visibility Wind Dir Wind Speed Gust Speed Precip Events Conditions
12:00 AM 69.8 °F 39.2 °F 33% 30.06 in - WNW 8.1 mph - N/A   Clear
12:30 AM 68.0 °F 42.8 °F 40% 30.06 in - WNW 6.9 mph - N/A   Clear
1:00 AM 68.0 °F 42.8 °F 40% 30.04 in - WNW 6.9 mph - N/A   Clear
1:30 AM 68.0 °F 42.8 °F 40% 30.04 in - WNW 6.9 mph - N/A   Clear
2:00 AM 66.2 °F 42.8 °F 43% 30.04 in - WNW 5.8 mph - N/A   Clear
2:30 AM 66.2 °F 42.8 °F 43% 30.04 in - WNW 6.9 mph - N/A   Clear
3:00 AM 67 °F 43 °F 30% 30.04 in 6 mi WNW 6.9 mph - -  
3:00 AM 66.2 °F 42.8 °F 43% 30.04 in - WNW 6.9 mph - N/A   Clear
3:30 AM 66.2 °F 42.8 °F 43% 30.04 in - WNW 6.9 mph - N/A   Clear
4:00 AM 66.2 °F 42.8 °F 43% 30.04 in - NW 6.9 mph - N/A   Clear
4:30 AM 66.2 °F 44.6 °F 46% 30.04 in - NW 4.6 mph - N/A   Clear
5:00 AM 66.2 °F 42.8 °F 43% 30.04 in - WNW 5.8 mph - N/A   Clear
5:30 AM 64.4 °F 44.6 °F 49% 30.06 in - West 3.5 mph - N/A   Clear
6:00 AM 64.4 °F 44.6 °F 49% 30.06 in - WNW 4.6 mph - N/A   Clear
6:30 AM 64.4 °F 46.4 °F 52% 30.09 in - WSW 4.6 mph - N/A   Clear
7:00 AM 64.4 °F 50.0 °F 59% 30.09 in - West 3.5 mph - N/A   Clear
7:30 AM 68.0 °F 48.2 °F 49% 30.09 in - WNW 8.1 mph - N/A   Clear
8:00 AM 68.0 °F 48.2 °F 49% 30.12 in - NW 9.2 mph - N/A   Clear
9:00 AM 71 °F 47 °F 31% 30.14 in 6 mi NW 9.2 mph - -  
9:00 AM 71.6 °F 46.4 °F 41% 30.12 in - NW 9.2 mph - N/A   Clear
10:00 AM 75.2 °F 44.6 °F 34% 30.12 in - NNW 11.5 mph - N/A   Clear
11:00 AM 78.8 °F 39.2 °F 24% 30.12 in - NNW 13.8 mph - N/A   Clear
12:00 PM 78.8 °F 41.0 °F 26% 30.09 in - North 15.0 mph - N/A   Clear
12:30 PM 78.8 °F 41.0 °F 26% 30.06 in - North 16.1 mph - N/A   Clear
1:00 PM 77.0 °F 46.4 °F 34% 30.06 in - North 13.8 mph - N/A   Clear
1:30 PM 78.8 °F 48.2 °F 34% 30.04 in - North 15.0 mph - N/A   Clear
2:00 PM 77.0 °F 48.2 °F 36% 30.04 in - NNE 13.8 mph - N/A   Clear
2:30 PM 77.0 °F 50.0 °F 39% 30.04 in - NNE 9.2 mph - N/A   Clear
3:00 PM 77 °F 48 °F 25% 30.05 in 10 mi North 10.4 mph - -  
3:00 PM 77.0 °F 48.2 °F 36% 30.04 in - North 10.4 mph - N/A   Clear
3:30 PM 78.8 °F 41.0 °F 26% 30.04 in - NNW 10.4 mph - N/A   Clear
4:00 PM 78.8 °F 37.4 °F 23% 30.04 in - NW 9.2 mph - N/A   Clear
4:30 PM 77.0 °F 39.2 °F 26% 30.04 in - NW 9.2 mph - N/A   Clear
5:00 PM 77.0 °F 37.4 °F 24% 30.06 in - NW 9.2 mph - N/A   Clear
5:30 PM 75.2 °F 33.8 °F 22% 30.06 in - WNW 11.5 mph - N/A   Clear
6:00 PM 75.2 °F 39.2 °F 27% 30.06 in - NW 9.2 mph - N/A   Clear
6:30 PM 73.4 °F 37.4 °F 27% 30.06 in - NW 6.9 mph - N/A   Clear
7:00 PM 71.6 °F 39.2 °F 31% 30.06 in - NNW 11.5 mph - N/A   Clear
7:30 PM 69.8 °F 46.4 °F 43% 30.06 in - NNW 9.2 mph - N/A   Clear
8:00 PM 68.0 °F 50.0 °F 52% 30.06 in - NNW 10.4 mph - N/A   Clear
8:30 PM 68.0 °F 50.0 °F 52% 30.06 in - North 10.4 mph - N/A   Clear
9:00 PM 72 °F 67 °F 79% 30.09 in 7 mi NE 4.6 mph - -   Clear
9:00 PM 68.0 °F 51.8 °F 56% 30.06 in - North 9.2 mph - N/A   Clear
9:30 PM 68.0 °F 55.4 °F 64% 30.06 in - North 10.4 mph - N/A   Clear
10:00 PM 66.2 °F 55.4 °F 68% 30.06 in - North 9.2 mph - N/A   Clear
10:30 PM 66.2 °F 55.4 °F 68% 30.06 in - North 8.1 mph - N/A   Clear
11:00 PM 66.2 °F 55.4 °F 68% 30.06 in - North 5.8 mph - N/A   Clear